Portada
METAR-TAF:

METAR-TAF

Aeroports :

Quibdó, Colòmbia

latitud: 05-43N, longitud: 076-37W, altitud: 53 m

Observació

L'informe es va fer fa 1 hora i 9 minuts, a les 13:00 UTC
Vent 3 kt del Sud-Est, variant entre Est i Sud/Sud-Oest
Temperatura 25°C
Humitat 100%
Pressió 1010 hPa
Visibilitat: 3500 m
Cel cobert a una alçada de 600 ft
plugim

METAR: SKUI 081300Z 14003KT 100V200 3500 -DZ OVC006 25/25 Q1010 RMK A2989

Hora: 09:09 (14:09 UTC)


TAF: manca

Observacions i pronòstics meteorològics de més de 4000 aeroports (METAR i TAF).

Les estacions disponibles són els punts grocs i vermells al mapa.

Posi el ratolí al punt desitjat per veure el nom de l'estació.

Feu clic per veure les observacions i els pronòstics meteorològics.

Per canviar el mapa: feu clic els botons verds amb una creu de color negre per apropar; al botó verd amb un guió per allunyar la imatge; o en les fletxes verdes per a mapes adjacents.


METAR-TAF: